This is the latest recevied weather packets stored in our database for station/object SQ6RR-11. If no packets are shown the sender has not sent any weather packets the latest 1 day(s).
| Time | Temp. | Humidity | Pressure | Rain* | Wind** | Luminosity | Snow |
|---|---|---|---|---|---|---|---|
| 1777974302 | 24.44° C | 27% | 1009 hPa | 0 mm | 0 m/s | - | - |
| 1777974005 | 24.44° C | 28% | 1009 hPa | 0 mm | 0 m/s | - | - |
| 1777973738 | 23.33° C | 28% | 1009.1 hPa | 0 mm | 0 m/s | - | - |
| 1777973475 | 23.33° C | 27% | 1009.1 hPa | 0 mm | 0 m/s | - | - |
| 1777973187 | 23.89° C | 29% | 1009.1 hPa | 0 mm | 0 m/s | - | - |
| 1777972916 | 24.44° C | 31% | 1009.1 hPa | 0 mm | 0 m/s | - | - |
| 1777972646 | 23.33° C | 32% | 1009.1 hPa | 0 mm | 0 m/s | - | - |
| 1777972377 | 22.78° C | 30% | 1009.2 hPa | 0 mm | 0 m/s | - | - |
| 1777972090 | 22.78° C | 32% | 1009.4 hPa | 0 mm | 0 m/s | - | - |
| 1777971822 | 21.67° C | 32% | 1009.4 hPa | 0 mm | 0 m/s | - | - |
| 1777971557 | 21.67° C | 32% | 1009.4 hPa | 0 mm | 0 m/s | - | - |
| 1777971282 | 21.67° C | 31% | 1009.5 hPa | 0 mm | 0 m/s | - | - |
| 1777971000 | 22.22° C | 31% | 1009.5 hPa | 0 mm | 0 m/s | - | - |
| 1777970721 | 22.78° C | 28% | 1009.4 hPa | 0 mm | 0 m/s | - | - |
| 1777970456 | 23.89° C | 32% | 1009.5 hPa | 0 mm | 0 m/s | - | - |
| 1777970191 | 23.89° C | 31% | 1009.5 hPa | 0 mm | 0 m/s | - | - |
| 1777969906 | 22.78° C | 35% | 1009.6 hPa | 0 mm | 0 m/s | - | - |
| 1777969629 | 22.22° C | 33% | 1009.7 hPa | 0 mm | 0 m/s | - | - |
| 1777969377 | 22.22° C | 35% | 1009.7 hPa | 0 mm | 0 m/s | - | - |
| 1777969129 | 21.67° C | 36% | 1009.9 hPa | 0 mm | 0 m/s | - | - |
| 1777968847 | 21.11° C | 37% | 1009.9 hPa | 0 mm | 0 m/s | - | - |
| 1777968572 | 20.56° C | 40% | 1010 hPa | 0 mm | 0 m/s | - | - |
| 1777968297 | 20.56° C | 41% | 1010 hPa | 0 mm | 0 m/s | - | - |
| 1777968009 | 20.56° C | 42% | 1010 hPa | 0 mm | 0 m/s | - | - |
| 1777967742 | 20.56° C | 43% | 1010.1 hPa | 0 mm | 0 m/s | - | - |
* Rain latest hour (hover to see other rain measurements)
** Current wind speed in m/s (hover to see current wind gust speed)